Location: Unspecified
(41.1637°N, 24.2901°E)
Time: 09:46:01
(UTC+01:00)

ISS - Pass Details

Date: 24 October 2020
Orbit: 417 x 420 km, 51.6° (Epoch: 29 October)

Event Time Altitude Azimuth Distance (km) Brightness Sun altitude
Exits shadow 06:04:39 - 246° (WSW) 1,678 -1.2 -8.2°
Reaches altitude 10° 06:05:07 10° 248° (WSW) 1,490 -1.5 -8.2°
Maximum altitude 06:08:24 56° 327° (NNW) 499 -3.6 -7.5°
Drops below altitude 10° 06:11:43 10° 48° (NE) 1,497 -0.4 -6.9°
Sets 06:13:51 0° 52° (NE) 2,363 0.7 -6.5°
